EW3156 Weather Reports


Display with metric or nautical units.
time (UTC)temp
F
wind
direction
speed
MPH
gust
MPH
rain 1hr
in
rain 24hr
in
rain mn
in
humidity
%
barometer
mb
20260504194541 80 67 2.0 5.0 0.00 0.00 0.00 39 1014.3
20260504193031 79 102 1.0 3.0 0.00 0.00 0.00 43 1014.5
20260504191529 79 200 1.0 4.0 0.00 0.00 0.00 44 1014.7
20260504190030 79 88 0.0 4.0 0.00 0.00 0.00 43 1014.8
20260504184525 80 157 2.0 5.0 0.00 0.00 0.00 43 1015.2
20260504183022 79 77 2.0 6.0 0.00 0.00 0.00 41 1015.3
20260504181519 79 121 2.0 4.0 0.00 0.00 0.00 43 1015.6
20260504180017 78 182 0.0 2.0 0.00 0.00 0.00 44 1015.8
20260504174515 78 150 0.0 5.0 0.00 0.00 0.00 46 1015.9
20260504173011 77 192 0.0 4.0 0.00 0.00 0.00 45 1016.2
20260504171531 76 285 1.0 7.0 0.00 0.00 0.00 46 1016.3
20260504081531 46 268 0.0 0.0 0.00 0.00 0.00 95 1017.1
20260504050006 50 268 0.0 0.0 0.00 0.00 0.00 89 1018.3
20260504044504 51 268 0.0 0.0 0.00 0.00 0.00 88 1018.4
20260504043002 51 268 0.0 0.0 0.00 0.00 0.00 87 1018.6
20260504041501 52 268 0.0 0.0 0.00 0.00 0.00 85 1018.6
20260504040005 52 268 0.0 0.0 0.00 0.00 0.00 85 1018.5
20260504034503 52 268 0.0 0.0 0.00 0.00 0.00 84 1018.8
20260504033100 53 268 0.0 0.0 0.00 0.00 0.00 82 1018.9
20260504031600 53 268 0.0 0.0 0.00 0.00 0.00 80 1018.9
20260504030059 54 268 0.0 0.0 0.00 0.00 0.00 78 1018.8
20260504024559 55 268 0.0 0.0 0.00 0.00 0.00 76 1018.6
20260504023058 55 268 0.0 0.0 0.00 0.00 0.00 75 1018.5
20260504021557 56 268 0.0 0.0 0.00 0.00 0.00 73 1018.3
20260504020057 57 268 0.0 0.0 0.00 0.00 0.00 71 1018.3
20260504014611 58 268 0.0 0.0 0.00 0.00 0.00 68 1018.2
20260504013056 59 268 0.0 0.0 0.00 0.00 0.00 67 1018.0
20260504011559 60 268 0.0 0.0 0.00 0.00 0.00 62 1017.9
20260504010059 61 268 0.0 0.0 0.00 0.00 0.00 60 1017.8
20260504004555 62 268 0.0 0.0 0.00 0.00 0.00 57 1017.7
20260504003059 63 268 0.0 0.0 0.00 0.00 0.00 56 1017.5
20260504001559 64 268 0.0 0.0 0.00 0.00 0.00 54 1017.4
20260504000052 66 268 0.0 1.0 0.00 0.00 0.00 51 1017.5
20260503234552 67 268 0.0 1.0 0.00 0.00 0.00 50 1017.4
20260503233052 68 267 0.0 2.0 0.00 0.00 0.00 43 1017.3
20260503231551 69 119 0.0 2.0 0.00 0.00 0.00 44 1017.4
20260503230051 69 277 0.0 2.0 0.00 0.00 0.00 44 1017.4
20260503224549 69 253 1.0 7.0 0.00 0.00 0.00 39 1017.5
20260503223048 69 246 1.0 5.0 0.00 0.00 0.00 40 1017.5
20260503221546 70 144 1.0 8.0 0.00 0.00 0.00 38 1017.8
20260503220050 70 296 0.0 6.0 0.00 0.00 0.00 40 1017.8
20260503214544 71 285 1.0 6.0 0.00 0.00 0.00 38 1017.9
20260503213047 71 144 0.0 7.0 0.00 0.00 0.00 39 1018.0
20260503211541 72 271 1.0 6.0 0.00 0.00 0.00 38 1018.2
20260503210040 72 288 0.0 8.0 0.00 0.00 0.00 38 1018.3
20260503204540 72 331 2.0 8.0 0.00 0.00 0.00 38 1018.5
20260503203038 71 199 2.0 10.0 0.00 0.00 0.00 40 1018.8
20260503201537 71 298 1.0 9.0 0.00 0.00 0.00 40 1019.1
20260503200042 71 303 1.0 6.0 0.00 0.00 0.00 41 1019.4